TimeCDT,TemperatureF,Dew PointF,Humidity,Sea Level PressureIn,VisibilityMPH,Wind Direction,Wind SpeedMPH,Gust SpeedMPH,PrecipitationIn,Events,Conditions,WindDirDegrees,DateUTC
12:15 AM,19.4,12.2,74,30.25,10.0,Calm,Calm,-,N/A,,Clear,0,2013-03-14 05:15:00
12:35 AM,19.4,10.4,68,30.25,10.0,Calm,Calm,-,N/A,,Clear,0,2013-03-14 05:35:00
12:55 AM,19.4,12.2,74,30.24,10.0,Calm,Calm,-,N/A,,Clear,0,2013-03-14 05:55:00
1:15 AM,19.4,12.2,74,30.24,10.0,Calm,Calm,-,N/A,,Clear,0,2013-03-14 06:15:00
1:35 AM,19.4,10.4,68,30.24,10.0,West,3.5,-,N/A,,Clear,280,2013-03-14 06:35:00
1:55 AM,19.4,12.2,74,30.24,10.0,West,3.5,-,N/A,,Clear,280,2013-03-14 06:55:00
2:15 AM,17.6,10.4,73,30.24,10.0,West,3.5,-,N/A,,Clear,260,2013-03-14 07:15:00
2:35 AM,17.6,12.2,79,30.24,10.0,West,3.5,-,N/A,,Clear,280,2013-03-14 07:35:00
2:55 AM,17.6,10.4,73,30.24,10.0,Calm,Calm,-,N/A,,Clear,0,2013-03-14 07:55:00
3:15 AM,15.8,12.2,86,30.24,10.0,Calm,Calm,-,N/A,,Clear,0,2013-03-14 08:15:00
3:35 AM,17.6,10.4,73,30.23,10.0,WNW,3.5,-,N/A,,Clear,290,2013-03-14 08:35:00
3:55 AM,15.8,8.6,73,30.22,10.0,Calm,Calm,-,N/A,,Clear,0,2013-03-14 08:55:00
4:15 AM,15.8,8.6,73,30.22,10.0,Calm,Calm,-,N/A,,Clear,0,2013-03-14 09:15:00
4:35 AM,15.8,8.6,73,30.22,10.0,Calm,Calm,-,N/A,,Clear,0,2013-03-14 09:35:00
4:55 AM,15.8,10.4,79,30.22,10.0,WNW,3.5,-,N/A,,Clear,290,2013-03-14 09:55:00
5:15 AM,15.8,10.4,79,30.22,10.0,WNW,3.5,-,N/A,,Clear,300,2013-03-14 10:15:00
5:35 AM,15.8,10.4,79,30.22,10.0,Calm,Calm,-,N/A,,Clear,0,2013-03-14 10:35:00
5:55 AM,15.8,10.4,79,30.23,10.0,WNW,3.5,-,N/A,,Clear,300,2013-03-14 10:55:00
6:15 AM,15.8,10.4,79,30.23,10.0,Calm,Calm,-,N/A,,Clear,0,2013-03-14 11:15:00
6:35 AM,14.0,8.6,79,30.23,10.0,WNW,3.5,-,N/A,,Clear,300,2013-03-14 11:35:00
6:55 AM,14.0,8.6,79,30.23,10.0,Calm,Calm,-,N/A,,Clear,0,2013-03-14 11:55:00
7:15 AM,12.2,6.8,79,30.24,10.0,NNW,3.5,-,N/A,,Clear,340,2013-03-14 12:15:00
7:35 AM,12.2,6.8,79,30.24,10.0,Calm,Calm,-,N/A,,Clear,0,2013-03-14 12:35:00
7:55 AM,15.8,8.6,73,30.24,10.0,Calm,Calm,-,N/A,,Clear,0,2013-03-14 12:55:00
8:15 AM,15.8,8.6,73,30.24,10.0,NW,3.5,-,N/A,,Clear,310,2013-03-14 13:15:00
8:35 AM,19.4,8.6,63,30.25,10.0,Calm,Calm,-,N/A,,Clear,0,2013-03-14 13:35:00
8:55 AM,19.4,8.6,63,30.25,10.0,NNW,3.5,-,N/A,,Clear,340,2013-03-14 13:55:00
9:15 AM,21.2,8.6,58,30.25,10.0,Calm,Calm,-,N/A,,Clear,0,2013-03-14 14:15:00
9:35 AM,23.0,8.6,54,30.25,10.0,Calm,Calm,-,N/A,,Clear,0,2013-03-14 14:35:00
9:55 AM,24.8,8.6,50,30.25,10.0,Calm,Calm,-,N/A,,Clear,0,2013-03-14 14:55:00
10:15 AM,26.6,10.4,51,30.24,10.0,SE,3.5,-,N/A,,Clear,130,2013-03-14 15:15:00
10:35 AM,26.6,10.4,51,30.23,10.0,ESE,3.5,-,N/A,,Clear,120,2013-03-14 15:35:00
10:55 AM,28.4,10.4,47,30.22,10.0,SE,4.6,-,N/A,,Clear,130,2013-03-14 15:55:00
11:15 AM,30.2,10.4,44,30.21,10.0,SE,5.8,-,N/A,,Clear,130,2013-03-14 16:15:00
11:35 AM,28.4,15.8,59,30.20,10.0,SE,8.1,-,N/A,,Clear,140,2013-03-14 16:35:00
11:55 AM,30.2,15.8,55,30.19,10.0,SE,8.1,-,N/A,,Clear,140,2013-03-14 16:55:00
12:15 PM,30.2,10.4,44,30.20,10.0,SSW,6.9,-,N/A,,Clear,200,2013-03-14 17:15:00
12:35 PM,33.8,6.8,32,30.19,10.0,WSW,8.1,-,N/A,,Clear,240,2013-03-14 17:35:00
12:55 PM,32.0,8.6,38,30.18,10.0,SW,12.7,-,N/A,,Clear,230,2013-03-14 17:55:00
1:15 PM,33.8,8.6,35,30.18,10.0,SW,11.5,16.1,N/A,,Clear,220,2013-03-14 18:15:00
1:35 PM,32.0,8.6,38,30.17,10.0,SSW,10.4,-,N/A,,Clear,200,2013-03-14 18:35:00
1:55 PM,33.8,10.4,38,30.17,10.0,SW,10.4,-,N/A,,Clear,220,2013-03-14 18:55:00
2:15 PM,33.8,8.6,35,30.17,10.0,SW,5.8,-,N/A,,Clear,230,2013-03-14 19:15:00
2:35 PM,33.8,10.4,38,30.15,10.0,SSW,6.9,19.6,N/A,,Clear,210,2013-03-14 19:35:00
2:55 PM,33.8,10.4,38,30.13,10.0,SW,10.4,-,N/A,,Clear,230,2013-03-14 19:55:00
3:15 PM,33.8,12.2,41,30.13,10.0,SW,13.8,-,N/A,,Clear,220,2013-03-14 20:15:00
3:35 PM,33.8,14.0,44,30.12,10.0,SSW,11.5,-,N/A,,Clear,200,2013-03-14 20:35:00
3:55 PM,35.6,12.2,38,30.12,10.0,SW,10.4,-,N/A,,Clear,230,2013-03-14 20:55:00
4:15 PM,33.8,14.0,44,30.11,10.0,SSW,13.8,-,N/A,,Clear,210,2013-03-14 21:15:00
4:35 PM,35.6,14.0,41,30.10,10.0,SW,12.7,-,N/A,,Clear,230,2013-03-14 21:35:00
4:55 PM,33.8,14.0,44,30.09,10.0,SSW,13.8,-,N/A,,Clear,210,2013-03-14 21:55:00
5:15 PM,33.8,15.8,48,30.08,10.0,SSW,11.5,-,N/A,,Clear,210,2013-03-14 22:15:00
5:35 PM,33.8,15.8,48,30.07,10.0,SSW,11.5,-,N/A,,Clear,210,2013-03-14 22:35:00
5:55 PM,33.8,17.6,52,30.04,10.0,SSW,13.8,-,N/A,,Clear,210,2013-03-14 22:55:00
6:15 PM,33.8,17.6,52,30.05,10.0,SW,8.1,-,N/A,,Clear,220,2013-03-14 23:15:00
6:35 PM,33.8,15.8,48,30.05,10.0,SW,10.4,-,N/A,,Clear,230,2013-03-14 23:35:00
6:55 PM,33.8,12.2,41,30.05,10.0,WSW,5.8,-,N/A,,Clear,250,2013-03-14 23:55:00
7:15 PM,32.0,14.0,48,30.04,10.0,SW,9.2,-,N/A,,Clear,230,2013-03-15 00:15:00
7:35 PM,32.0,15.8,51,30.02,10.0,SW,12.7,17.3,N/A,,Clear,230,2013-03-15 00:35:00
7:55 PM,32.0,17.6,55,30.01,10.0,SW,11.5,-,N/A,,Clear,230,2013-03-15 00:55:00
8:35 PM,30.2,15.8,55,30.01,10.0,WSW,8.1,16.1,N/A,,Scattered Clouds,240,2013-03-15 01:35:00
8:55 PM,30.2,17.6,60,30.01,10.0,WSW,6.9,-,N/A,,Mostly Cloudy,250,2013-03-15 01:55:00
9:15 PM,32.0,19.4,60,30.00,10.0,WSW,8.1,-,N/A,,Mostly Cloudy,240,2013-03-15 02:15:00
9:35 PM,32.0,19.4,60,30.00,10.0,West,10.4,16.1,N/A,,Mostly Cloudy,260,2013-03-15 02:35:00
9:55 PM,32.0,19.4,60,29.99,10.0,WSW,9.2,16.1,N/A,,Partly Cloudy,240,2013-03-15 02:55:00
10:15 PM,30.2,19.4,64,29.98,10.0,WSW,10.4,16.1,N/A,,Scattered Clouds,250,2013-03-15 03:15:00
10:35 PM,30.2,21.2,69,29.99,10.0,WSW,8.1,-,N/A,,Partly Cloudy,250,2013-03-15 03:35:00
10:55 PM,30.2,21.2,69,29.98,10.0,WSW,9.2,-,N/A,,Clear,240,2013-03-15 03:55:00
11:15 PM,30.2,23.0,75,29.98,10.0,West,5.8,-,N/A,,Clear,260,2013-03-15 04:15:00
11:35 PM,30.2,23.0,75,29.97,10.0,WSW,8.1,-,N/A,,Partly Cloudy,250,2013-03-15 04:35:00
11:55 PM,30.2,23.0,75,29.96,10.0,WSW,8.1,-,N/A,,Mostly Cloudy,240,2013-03-15 04:55:00